aperderpeso.com alexa rank chart, aperderpeso.com alexa rank daily changes

aperderpeso.com alexa rank chart, aperderpeso.com alexa rank daily changes

aperderpeso.com
Actual rank:
79 479

RANK HISTORY

Date Rank Diff
2017/08/18 79 479 -540
2017/08/17 80 019 -1 015
2017/08/16 81 034 +382
2017/08/15 80 652 -881
2017/08/14 81 533 -1 461
2017/08/13 82 994 -196
2017/08/12 83 190 +788
2017/08/11 82 402 -891
2017/08/10 83 293 -591
2017/08/09 83 884 -811
2017/08/08 84 695 +703
2017/08/07 83 992 -321
2017/08/06 84 313 -262
2017/08/05 84 575 -1 219
2017/08/04 85 794 -1 576
2017/08/03 87 370 +132
2017/08/02 87 238 -561
2017/08/01 87 799 -756
2017/07/31 88 555 -1 228
2017/07/30 89 783 -164
2017/07/29 89 947 -1 107
2017/07/28 91 054 +989
2017/07/27 90 065 -866
2017/07/26 90 931 +613
2017/07/25 90 318 +1 198
2017/07/24 89 120 +435
2017/07/23 88 685 +1 626
2017/07/22 87 059 +743
2017/07/21 86 316 +1 848
2017/07/20 84 468 -1 409
2017/07/19 85 877 +1 425
2017/07/18 84 452 +1 184
2017/07/17 83 268 +968
2017/07/16 82 300 +203
2017/07/15 82 097 +870
2017/07/14 81 227 +889
2017/07/13 80 338 -220
2017/07/12 80 558 -524
2017/07/11 81 082 +1 577
2017/07/10 79 505 +1 672
2017/07/09 77 833 +525
2017/07/08 77 308 -173
2017/07/07 77 481 +847
2017/07/06 76 634 +904
2017/07/05 75 730 +651
2017/07/04 75 079 +1 601
2017/07/03 73 478 +1 490
2017/07/02 71 988 +256
2017/07/01 71 732 +838
2017/06/30 70 894 +982
2017/06/29 69 912 +821
2017/06/28 69 091 -340
2017/06/27 69 431 +681
2017/06/26 68 750 -464
2017/06/25 69 214 +510
2017/06/24 68 704 +908
2017/06/23 67 796 -156
2017/06/22 67 952 -1 070
2017/06/21 69 022 +117
2017/06/20 68 905 +617
2017/06/19 68 288

WIDGET FOR YOUR SITE

DOMAINS WITH THE NEAREST RANK

Domain Rank
nursingtimes.net 79 474
rybalku.ru 79 475
gatikwe.com 79 476
netfile.co.kr 79 477
rently.com 79 478
aperderpeso.com 79 479
xiguacili.com 79 480
sqsxs.com 79 481
baymard.com 79 482
speedtest.in 79 483
mojekrpice.hr 79 484

DOMAINS WITH THE NEAREST RANK BY TLD .com

Domain Rank
renthop.com 79 466
gsmhelpful.com 79 471
gymnasticbodies.com 79 473
gatikwe.com 79 476
rently.com 79 478
aperderpeso.com 79 479
xiguacili.com 79 480
sqsxs.com 79 481
baymard.com 79 482
onedow.com 79 485
thuttu.com 79 487